Wind_Speed
7 6 8 6 8 7 2 2 2 1 5 5 6 3 3 4 2 3 0 4 5 5 5 4 2 5 7 8 7 6 6 5 4 4 5 6 6 8 10 11 12 14 15
6 7 7 5 6 6 4 2 3 2 4 3 7 3 2 2 4 5 3 5 5 4 6 5 5 6 7 7 7 6 4 3 2 4 5 6 6 7 8 10 11 13 15
8 9 7 6 5 4 2 2 4 3 3 5 7 4 3 1 1 2 3 4 5 6 5 4 5 6 6 6 4 3 3 2 4 5 6 6 7 8 8 8 10 12 14
9 11 8 5 6 3 1 1 2 3 5 6 7 5 5 1 2 4 3 6 6 3 4 4 4 5 4 4 3 2 1 3 5 6 6 6 7 7 8 7 8 10 12
9 8 7 6 7 3 2 0 3 4 5 6 8 8 3 2 5 4 4 6 6 7 3 2 2 2 2 2 2 1 1 3 4 4 5 5 6 6 7 7 7 7 9
9 9 8 8 6 3 2 1 2 5 6 7 6 4 4 2 2 4 4 3 3 4 4 5 2 1 1 1 2 1 1 2 2 2 4 5 5 5 5 5 5 5 6
10 11 7 8 7 4 6 2 4 7 5 7 4 1 2 3 1 4 6 3 3 3 3 2 4 2 4 2 2 1 1 3 3 3 3 4 4 4 4 3 3 3 4
11 11 10 8 8 5 2 2 3 4 5 5 4 3 3 6 4 5 6 4 3 3 2 3 4 3 4 2 2 3 4 4 4 4 3 4 4 3 3 2 2 2 2
11 10 9 8 7 6 4 3 3 3 3 4 3 3 5 3 4 3 2 3 2 2 2 2 4 4 2 3 2 4 5 5 4 4 3 1 2 2 3 2 1 1 1
10 10 9 9 8 6 8 6 4 2 2 2 3 1 2 1 4 5 3 1 0 1 3 2 4 4 4 2 5 4 4 5 3 4 3 1 1 2 2 2 2 2 1
10 8 8 8 9 6 9 10 6 5 3 4 4 3 1 2 2 3 2 7 1 1 2 3 3 4 5 3 3 4 4 4 3 2 2 2 1 2 4 5 6 3 2
12 12 9 10 10 7 7 7 8 7 6 5 5 6 4 3 2 4 3 3 5 2 2 3 5 5 5 5 4 5 4 4 2 2 2 3 3 4 5 6 6 8 5
13 12 12 11 10 9 9 8 9 8 8 7 6 5 6 5 5 4 4 4 5 4 3 4 5 5 5 5 8 7 6 5 4 4 3 3 4 4 5 5 6 7 9
13 12 13 14 13 11 10 10 8 6 8 8 9 8 7 5 5 4 6 5 6 4 4 4 3 3 4 6 9 9 9 6 6 5 4 4 3 4 5 5 3 6 6
13 16 14 13 12 12 12 11 8 10 9 9 9 9 8 6 6 6 7 7 6 6 4 3 5 5 5 6 8 5 8 6 6 7 6 5 4 5 6 6 4 4 6
16 15 14 12 11 11 12 12 10 10 9 7 7 10 9 8 7 6 7 10 7 7 5 3 1 2 4 6 9 8 8 8 6 7 8 7 7 7 7 7 6 5 5
17 20 19 17 16 15 14 14 14 13 11 9 9 9 9 10 6 9 8 9 8 8 7 6 8 6 7 7 6 7 7 9 9 9 9 10 10 9 8 8 7 7 7
18 18 19 21 20 19 17 15 13 12 14 13 12 12 10 8 9 9 7 9 9 10 10 10 9 8 9 8 7 9 9 9 12 11 11 11 11 10 9 9 9 8 7
23 20 19 20 20 18 21 18 18 13 13 14 14 13 13 12 13 10 10 10 9 10 10 9 10 9 12 12 12 13 13 13 14 13 11 11 10 11 8 11 11 8 8
20 20 21 20 21 19 18 18 17 18 16 14 14 15 15 14 14 13 11 11 11 11 11 11 12 12 13 15 15 16 16 14 13 13 12 11 10 9 11 10 10 9 9
21 19 19 20 20 20 20 18 18 17 18 18 16 14 15 15 16 15 13 12 13 12 12 14 14 16 16 19 17 15 15 15 14 15 14 13 12 11 11 11 12 11 11
19 20 20 21 21 20 21 25 23 18 18 18 18 16 17 21 21 20 19 18 18 16 15 17 16 17 17 17 15 17 17 17 19 19 17 16 11 13 13 12 12 13 12
18 19 19 21 23 23 23 25 23 24 20 19 18 18 18 18 19 18 19 20 21 21 20 18 19 19 17 17 16 19 20 18 17 19 14 15 17 17 17 15 15 14 12
22 19 21 22 23 23 24 22 22 25 25 23 22 22 22 20 20 20 18 18 18 18 21 24 25 22 18 17 18 20 21 17 20 22 18 16 18 19 18 17 15 13 12
17 18 19 20 22 22 22 20 20 23 23 22 22 22 22 22 21 23 22 21 22 21 22 26 24 24 22 21 22 21 21 23 24 26 24 23 21 19 18 18 17 15 13
14 13 15 15 17 18 19 21 22 21 19 20 20 22 23 26 24 24 25 25 24 24 21 22 27 25 25 27 26 26 23 24 20 22 27 25 24 22 19 20 18 15 13
Wind_Direction
161 152 162 151 149 139 147 110 12 325 335 328 346 319 333 354 95 76 4 22 23 42 70 52 79 125 128 131 141 145 147 158 183 212 226 239 254 257 259 256 251 243 242
164 157 153 150 153 149 153 77 327 329 345 356 356 18 29 30 97 94 76 19 44 55 81 94 112 118 123 132 135 135 144 160 208 236 244 253 261 265 266 262 254 247 242
159 157 161 152 160 149 126 4 354 342 354 359 10 3 3 4 110 100 77 85 39 66 90 108 121 123 126 124 125 139 162 191 242 250 256 262 267 270 273 263 259 250 242
160 158 159 161 169 160 75 29 31 5 356 1 353 350 337 337 234 168 102 97 106 65 69 127 130 132 139 138 156 156 260 262 261 265 267 266 274 278 278 272 275 257 246
174 165 172 172 172 165 174 48 336 354 353 344 348 348 335 113 105 135 131 119 102 108 129 97 137 143 179 184 189 197 243 275 276 266 259 261 263 272 280 282 279 256 248
190 174 179 173 167 181 215 266 312 319 337 332 346 360 48 96 140 154 153 131 152 90 111 135 89 29 231 196 220 252 317 327 310 262 240 247 256 258 264 274 279 258 247
184 171 170 173 167 170 197 298 314 321 328 327 341 317 36 68 62 151 146 139 147 139 168 142 135 160 330 63 85 24 3 351 342 321 280 247 249 254 265 284 302 281 255
176 172 166 174 181 202 202 277 312 314 320 321 340 263 210 153 109 116 138 142 134 156 160 189 196 194 176 102 311 31 20 3 351 338 301 275 263 254 249 273 320 316 275
195 193 191 181 200 194 224 251 296 323 311 314 332 331 290 71 191 156 163 187 176 194 210 206 197 215 200 183 347 10 13 9 5 346 320 267 248 231 244 245 288 342 325
198 208 213 222 223 222 232 248 275 233 285 276 287 291 351 4 336 138 137 169 116 200 217 216 210 222 206 151 217 234 350 3 13 15 15 6 298 226 250 240 251 276 312
203 207 218 224 234 245 248 226 238 241 244 233 269 272 230 305 352 309 242 154 218 90 204 194 233 215 213 192 255 262 320 345 4 27 25 12 335 292 275 254 247 249 254
219 223 225 226 225 228 245 243 242 258 222 226 229 248 242 266 328 287 272 278 309 278 260 237 215 236 221 231 223 261 278 304 313 327 331 328 315 309 298 271 254 238 241
218 232 233 238 239 248 238 237 253 245 236 221 221 225 254 254 258 265 268 305 307 316 303 274 227 221 220 214 240 277 285 288 273 301 306 309 315 320 317 303 257 234 235
232 235 236 245 248 243 245 245 250 253 241 233 229 218 234 244 270 280 269 282 296 291 270 225 256 217 225 210 230 299 271 277 259 277 303 293 310 317 324 319 287 239 236
230 237 242 242 233 240 240 237 237 255 228 238 238 244 241 228 254 269 278 271 277 291 344 252 256 222 221 246 253 286 249 280 273 281 294 287 302 316 326 318 302 265 247
231 232 242 242 241 247 240 241 237 256 243 237 243 235 239 235 238 260 262 250 244 252 261 323 303 233 218 242 276 267 264 272 277 278 275 279 280 299 313 311 303 290 281
232 237 247 253 255 263 254 252 244 245 247 243 232 234 241 235 234 243 250 269 231 248 249 264 270 258 250 263 267 269 270 265 270 274 277 272 273 279 289 291 292 295 289
238 233 236 248 259 259 256 250 252 246 254 257 249 236 239 245 256 263 245 247 265 241 238 254 255 251 243 251 256 260 266 258 267 268 269 262 265 277 273 273 275 275 271
242 239 239 239 241 245 255 260 253 255 250 249 250 245 245 242 252 246 247 257 255 247 254 249 253 257 241 256 257 259 258 261 260 269 268 265 269 272 265 275 271 275 276
237 236 236 239 239 236 238 240 247 257 251 245 242 243 244 243 244 249 255 256 253 246 247 242 249 246 248 260 253 257 261 266 269 270 268 268 270 268 280 265 259 265 268
234 240 238 235 238 237 238 238 237 239 246 245 245 252 249 247 242 247 249 263 249 255 255 253 254 260 250 250 264 267 264 267 271 274 273 270 274 265 263 257 257 256 256
227 231 237 236 236 237 238 239 238 237 239 241 244 248 245 247 251 250 255 249 249 247 248 247 254 260 254 251 256 252 255 259 256 263 265 263 236 252 253 253 254 254 253
239 241 240 239 238 236 237 244 242 237 239 244 245 247 250 250 259 252 254 253 252 252 255 252 252 255 257 257 254 253 263 263 255 261 257 249 250 245 249 247 251 249 249
250 246 241 239 236 235 239 244 242 238 241 244 246 248 249 247 244 245 251 255 259 261 261 252 256 260 257 254 252 254 259 257 242 249 253 234 244 251 242 247 247 230 227
253 246 239 242 238 235 239 239 238 240 244 245 246 249 248 249 252 257 259 253 256 254 259 266 260 253 260 256 257 254 236 233 245 247 249 249 250 246 240 240 223 227 217
256 241 240 239 240 238 241 235 234 235 242 250 255 260 259 257 248 255 259 260 257 253 255 257 264 261 261 263 259 252 239 237 231 238 247 236 244 236 227 224 218 208 213
Height
1582 1583 1583 1585 1585 1586 1587 1587 1589 1589 1587 1586 1585 1585 1585 1584 1584 1585 1585 1582 1581 1580 1580 1581 1582 1582 1582 1583 1584 1585 1586 1587 1588 1589 1590 1590 1590 1591 1591 1592 1592 1592 1593
1582 1583 1584 1586 1586 1586 1587 1589 1589 1589 1588 1587 1585 1583 1584 1584 1583 1583 1585 1582 1582 1581 1581 1582 1583 1583 1583 1584 1585 1586 1586 1587 1588 1588 1589 1589 1590 1590 1590 1590 1589 1590 1590
1581 1583 1585 1586 1587 1587 1588 1590 1589 1589 1589 1588 1586 1585 1585 1583 1584 1583 1584 1585 1582 1582 1582 1583 1584 1584 1585 1585 1586 1587 1587 1587 1588 1588 1588 1588 1588 1589 1589 1588 1588 1588 1588
1582 1583 1585 1587 1588 1588 1590 1590 1590 1590 1590 1589 1587 1585 1584 1582 1582 1582 1584 1585 1585 1584 1583 1583 1584 1585 1585 1586 1586 1586 1587 1587 1587 1586 1586 1586 1587 1587 1587 1586 1585 1585 1586
1582 1584 1586 1587 1588 1590 1591 1591 1591 1591 1590 1589 1587 1586 1584 1584 1583 1584 1584 1585 1584 1586 1586 1584 1584 1585 1585 1586 1586 1586 1586 1586 1586 1585 1585 1585 1585 1585 1585 1584 1584 1583 1583
1581 1583 1585 1586 1588 1591 1591 1591 1590 1591 1590 1589 1587 1586 1585 1584 1584 1584 1585 1586 1585 1584 1586 1585 1584 1585 1585 1586 1585 1586 1585 1585 1584 1584 1584 1584 1584 1584 1584 1583 1583 1582 1582
1581 1583 1585 1586 1587 1589 1589 1590 1591 1591 1590 1589 1587 1585 1586 1585 1585 1585 1585 1586 1584 1585 1586 1585 1587 1588 1586 1585 1585 1585 1584 1584 1583 1583 1583 1583 1583 1583 1583 1582 1581 1581 1580
1581 1582 1584 1586 1587 1589 1588 1588 1588 1590 1590 1589 1588 1586 1583 1585 1585 1585 1586 1586 1586 1586 1585 1585 1586 1586 1587 1588 1586 1584 1584 1583 1583 1583 1582 1582 1581 1581 1581 1581 1581 1580 1580
1581 1582 1583 1585 1585 1586 1588 1587 1588 1588 1589 1589 1587 1587 1583 1579 1583 1585 1586 1586 1585 1586 1586 1585 1586 1585 1585 1587 1585 1584 1584 1583 1583 1582 1582 1581 1580 1581 1580 1580 1580 1580 1579
1580 1581 1582 1583 1584 1586 1585 1585 1586 1586 1587 1588 1588 1588 1586 1586 1582 1582 1585 1585 1585 1585 1585 1585 1586 1586 1585 1586 1585 1585 1584 1583 1582 1582 1582 1581 1581 1580 1580 1579 1579 1579 1579
1579 1581 1581 1581 1582 1583 1582 1582 1582 1582 1584 1586 1587 1588 1587 1588 1587 1585 1582 1581 1584 1585 1585 1585 1586 1586 1584 1586 1584 1583 1583 1583 1582 1582 1581 1581 1581 1580 1579 1579 1578 1578 1578
1578 1578 1579 1579 1580 1581 1580 1581 1580 1580 1581 1582 1584 1586 1586 1586 1585 1586 1584 1584 1584 1584 1584 1584 1584 1585 1585 1586 1585 1584 1583 1583 1582 1581 1581 1580 1580 1579 1578 1577 1577 1576 1577
1576 1577 1577 1578 1579 1578 1579 1579 1579 1579 1578 1580 1580 1584 1584 1585 1585 1585 1585 1583 1583 1582 1583 1583 1582 1583 1584 1584 1582 1582 1582 1582 1581 1581 1580 1579 1579 1578 1577 1576 1575 1575 1575
1573 1574 1575 1575 1576 1577 1578 1578 1579 1579 1579 1578 1578 1579 1581 1582 1583 1584 1584 1583 1582 1580 1580 1581 1581 1581 1581 1582 1580 1580 1579 1580 1580 1580 1579 1579 1578 1577 1576 1575 1574 1573 1574
1570 1570 1571 1572 1573 1575 1575 1576 1577 1577 1577 1576 1578 1577 1578 1579 1581 1582 1583 1583 1582 1580 1578 1578 1579 1580 1581 1579 1578 1578 1578 1578 1578 1579 1578 1577 1577 1576 1575 1574 1574 1573 1573
1565 1567 1568 1569 1570 1571 1572 1573 1575 1575 1574 1575 1575 1575 1576 1578 1578 1579 1580 1578 1579 1580 1579 1578 1578 1578 1579 1580 1576 1577 1576 1577 1577 1577 1576 1576 1575 1575 1574 1574 1573 1572 1572
1561 1563 1564 1566 1566 1567 1568 1570 1570 1571 1571 1572 1572 1573 1574 1574 1576 1576 1576 1574 1575 1576 1577 1576 1575 1574 1574 1574 1574 1575 1575 1575 1574 1575 1575 1574 1574 1574 1573 1573 1572 1572 1571
1556 1558 1560 1561 1562 1563 1565 1566 1567 1569 1568 1569 1570 1572 1572 1573 1573 1572 1572 1572 1572 1572 1573 1574 1573 1573 1571 1571 1572 1572 1572 1572 1572 1572 1572 1571 1571 1571 1571 1571 1570 1570 1569
1550 1553 1555 1555 1557 1559 1559 1561 1562 1563 1564 1566 1567 1568 1569 1570 1570 1570 1570 1569 1569 1569 1569 1570 1570 1569 1569 1567 1568 1568 1569 1568 1568 1568 1568 1568 1568 1568 1568 1568 1567 1567 1566
1544 1545 1548 1551 1552 1554 1554 1556 1557 1558 1560 1562 1563 1564 1564 1564 1565 1566 1565 1565 1565 1565 1565 1565 1566 1566 1565 1563 1563 1563 1564 1564 1564 1564 1565 1564 1564 1564 1563 1563 1563 1563 1563
1539 1540 1542 1544 1546 1548 1549 1550 1552 1553 1554 1556 1557 1558 1559 1559 1559 1560 1562 1561 1561 1560 1561 1561 1561 1560 1560 1558 1558 1558 1559 1559 1560 1560 1559 1560 1559 1558 1558 1559 1559 1560 1560
1532 1534 1535 1537 1539 1540 1542 1543 1545 1548 1550 1550 1551 1552 1553 1553 1553 1554 1554 1555 1555 1555 1554 1555 1556 1555 1555 1554 1554 1554 1554 1555 1554 1555 1555 1556 1557 1555 1555 1555 1556 1557 1557
1526 1526 1528 1530 1531 1533 1535 1536 1539 1541 1543 1544 1545 1547 1548 1549 1549 1549 1548 1548 1548 1548 1548 1549 1549 1549 1550 1549 1550 1549 1549 1549 1550 1549 1551 1550 1550 1550 1551 1551 1552 1553 1553
1518 1519 1520 1521 1523 1526 1528 1531 1533 1535 1536 1538 1540 1540 1541 1542 1543 1543 1544 1543 1543 1543 1541 1541 1541 1542 1543 1544 1543 1543 1543 1544 1544 1544 1545 1545 1544 1544 1545 1546 1547 1549 1550
1512 1512 1513 1515 1517 1519 1523 1526 1527 1528 1530 1532 1533 1533 1534 1535 1536 1537 1537 1537 1536 1536 1536 1534 1535 1535 1536 1537 1538 1537 1537 1537 1537 1537 1537 1538 1539 1540 1541 1541 1543 1545 1547
1507 1508 1509 1511 1512 1514 1517 1520 1521 1523 1526 1527 1527 1526 1526 1527 1528 1529 1529 1528 1527 1528 1530 1530 1527 1527 1528 1528 1529 1529 1530 1529 1531 1529 1528 1530 1530 1534 1534 1536 1537 1540 1543